Marysville, MI

12:09 AM EDT on August 27, 2016 (GMT -0400)
Saint Clair County International

Weather History for KPHN - April, 2013

Change the Weather History Date:

Friday, April 5, 2013

  Actual Average (KMTC) Record (KMTC)
Temperature  
Mean Temperature 34 °F -  
Max Temperature 41 °F 49 °F 72 °F (1988)
Min Temperature 24 °F 32 °F 19 °F (1964)
Degree Days  
Heating Degree Days 32    
Moisture  
Dew Point 27 °F    
Average Humidity 76    
Maximum Humidity 100    
Minimum Humidity 56    
Precipitation  
Precipitation 0.00 in - - ()
Sea Level Pressure  
Sea Level Pressure 30.10 in    
Wind  
Wind Speed 6 mph (NNE)    
Max Wind Speed 17 mph    
Max Gust Speed 25 mph    
Visibility 9 miles    
Events      
Averages and records for this station are not official NWS values.
T = Trace of Precipitation, MM = Missing Value Source: NWS Daily Summary

Daily Weather History Graph

Daily Weather History Graph

Search for Another Location

Airport or City:

Trip Planner

Search our weather history database for the weather conditions in past years. The results will help you decide how hot, cold, wet, or windy it might be!

Date:

Astronomy

Apr. 05, 2013 Rise Set
Actual Time 7:04 AM EDT 8:01 PM EDT
Civil Twilight 6:36 AM EDT 8:30 PM EDT
Nautical Twilight 6:01 AM EDT 9:04 PM EDT
Astronomical Twilight 5:25 AM EDT 9:40 PM EDT
Moon 4:18 AM EDT (4/5) 3:17 PM EDT (4/5)
Length of Visible Light 13h 54m
Length of Day
12h 56m
Waning Crescent, 24% of the Moon is Illuminated
Apr 5
Waning Crescent
Apr 10
New
Apr 18
First Quarter
Apr 25
Full
May 2
Last Quarter

Hourly Weather History & Observations

Time (EDT) Temp. Windchill Dew Point Humidity Pressure Visibility Wind Dir Wind Speed Gust Speed Precip Events Conditions
12:17 AM 41.0 °F 34.7 °F 28.4 °F 61% 29.95 in 10.0 mi NNE 10.4 mph - N/A   Overcast
12:37 AM 39.2 °F 35.9 °F 32.0 °F 75% 29.95 in 10.0 mi NNE 4.6 mph 18.4 mph N/A   Overcast
12:57 AM 39.2 °F 35.0 °F 33.8 °F 81% 29.95 in 10.0 mi NNE 5.8 mph - N/A   Overcast
1:17 AM 37.4 °F 32.8 °F 33.8 °F 87% 29.95 in 10.0 mi NNE 5.8 mph - N/A   Overcast
1:37 AM 37.4 °F 32.1 °F 33.8 °F 87% 29.96 in 10.0 mi NNE 6.9 mph - N/A   Overcast
1:57 AM 35.6 °F - 33.8 °F 93% 29.96 in 10.0 mi Calm Calm - N/A   Mostly Cloudy
2:17 AM 35.6 °F 31.7 °F 33.8 °F 93% 29.96 in 7.0 mi NNE 4.6 mph - N/A   Scattered Clouds
2:37 AM 35.6 °F - 33.8 °F 93% 29.96 in 7.0 mi Calm Calm - N/A   Clear
2:57 AM 33.8 °F - 32.0 °F 93% 29.96 in 7.0 mi Calm Calm - N/A   Clear
3:17 AM 33.8 °F - 32.0 °F 93% 29.96 in 5.0 mi Calm Calm - N/A   Clear
3:37 AM 33.8 °F - 32.0 °F 93% 29.96 in 5.0 mi Calm Calm - N/A   Clear
3:57 AM 32.0 °F - 32.0 °F 100% 29.97 in 4.0 mi Calm Calm - N/A   Clear
4:17 AM 32.0 °F - 32.0 °F 100% 29.98 in 2.5 mi Calm Calm - N/A   Scattered Clouds
4:37 AM 32.0 °F - 32.0 °F 100% 29.98 in 3.0 mi Calm Calm - N/A   Overcast
4:57 AM 33.8 °F - 33.8 °F 100% 29.99 in 4.0 mi Calm Calm - N/A   Overcast
5:17 AM 33.8 °F 28.6 °F 33.8 °F 100% 30.00 in 5.0 mi North 5.8 mph - N/A   Mostly Cloudy
5:37 AM 33.8 °F - 33.8 °F 100% 30.01 in 5.0 mi Calm Calm - N/A   Scattered Clouds
5:57 AM 32.0 °F - 32.0 °F 100% 30.02 in 4.0 mi Calm Calm - N/A   Clear
6:17 AM 32.0 °F - 32.0 °F 100% 30.03 in 5.0 mi Calm Calm - N/A   Clear
6:37 AM 32.0 °F - 32.0 °F 100% 30.03 in 5.0 mi Calm Calm - N/A   Mostly Cloudy
6:57 AM 32.0 °F - 32.0 °F 100% 30.04 in 5.0 mi Calm Calm - N/A   Scattered Clouds
7:17 AM 32.0 °F 28.7 °F 30.2 °F 93% 30.05 in 5.0 mi NW 3.5 mph - N/A   Mostly Cloudy
7:37 AM 32.0 °F - 32.0 °F 100% 30.06 in 7.0 mi Calm Calm - N/A   Overcast
7:57 AM 32.0 °F - 30.2 °F 93% 30.07 in 7.0 mi Calm Calm - N/A   Mostly Cloudy
8:17 AM 33.8 °F - 30.2 °F 87% 30.08 in 7.0 mi Calm Calm - N/A   Mostly Cloudy
8:37 AM 33.8 °F 27.0 °F 30.2 °F 87% 30.09 in 10.0 mi NW 8.1 mph - N/A   Scattered Clouds
8:57 AM 35.6 °F 28.0 °F 28.4 °F 75% 30.09 in 10.0 mi NNW 10.4 mph 16.1 mph N/A   Clear
9:17 AM 35.6 °F 28.6 °F 26.6 °F 70% 30.09 in 10.0 mi NNW 9.2 mph 17.3 mph N/A   Clear
9:37 AM 35.6 °F 26.6 °F 23.0 °F 60% 30.10 in 10.0 mi North 13.8 mph 18.4 mph N/A   Clear
9:57 AM 37.4 °F 29.8 °F 23.0 °F 56% 30.10 in 10.0 mi North 11.5 mph 17.3 mph N/A   Clear
10:17 AM 37.4 °F 32.1 °F 24.8 °F 60% 30.11 in 10.0 mi NW 6.9 mph - N/A   Scattered Clouds
10:37 AM 35.6 °F 27.5 °F 24.8 °F 65% 30.11 in 10.0 mi NW 11.5 mph 17.3 mph N/A   Mostly Cloudy
10:57 AM 39.2 °F 32.0 °F 26.6 °F 61% 30.11 in 10.0 mi North 11.5 mph - N/A   Scattered Clouds
11:17 AM 37.4 °F 31.4 °F 24.8 °F 60% 30.12 in 10.0 mi North 8.1 mph 23.0 mph N/A   Scattered Clouds
11:37 AM 37.4 °F 30.3 °F 24.8 °F 60% 30.12 in 10.0 mi NNW 10.4 mph - N/A   Mostly Cloudy
11:57 AM 39.2 °F 31.6 °F 24.8 °F 56% 30.13 in 10.0 mi North 12.7 mph 16.1 mph N/A   Mostly Cloudy
12:17 PM 39.2 °F 32.5 °F 24.8 °F 56% 30.13 in 10.0 mi NNW 10.4 mph 17.3 mph N/A   Overcast
12:37 PM 39.2 °F 32.5 °F 24.8 °F 56% 30.13 in 10.0 mi NNW 10.4 mph 18.4 mph N/A   Mostly Cloudy
12:57 PM 39.2 °F 33.0 °F 24.8 °F 56% 30.14 in 10.0 mi NNW 9.2 mph 17.3 mph N/A   Overcast
1:17 PM 39.2 °F 33.0 °F 28.4 °F 65% 30.14 in 10.0 mi North 9.2 mph - N/A   Overcast
1:37 PM 37.4 °F 28.5 °F 28.4 °F 70% 30.14 in 10.0 mi NNE 15.0 mph 21.9 mph N/A   Overcast
1:57 PM 39.2 °F 30.8 °F 28.4 °F 65% 30.14 in 10.0 mi NNE 15.0 mph 20.7 mph N/A   Overcast
2:17 PM 37.4 °F 27.8 °F 28.4 °F 70% 30.14 in 10.0 mi NE 17.3 mph 25.3 mph N/A   Overcast
2:37 PM 37.4 °F 29.3 °F 28.4 °F 70% 30.14 in 10.0 mi NNE 12.7 mph 20.7 mph N/A   Overcast
2:57 PM 39.2 °F 30.2 °F 28.4 °F 65% 30.15 in 10.0 mi North 17.3 mph 23.0 mph N/A   Overcast
3:17 PM 37.4 °F 29.8 °F 26.6 °F 65% 30.15 in 10.0 mi NNE 11.5 mph 17.3 mph N/A   Mostly Cloudy
3:37 PM 37.4 °F 29.8 °F 26.6 °F 65% 30.15 in 10.0 mi NE 11.5 mph 20.7 mph N/A   Mostly Cloudy
3:57 PM 37.4 °F 31.4 °F 26.6 °F 65% 30.14 in 10.0 mi North 8.1 mph 20.7 mph N/A   Mostly Cloudy
4:17 PM 37.4 °F 29.8 °F 24.8 °F 60% 30.14 in 10.0 mi NE 11.5 mph 19.6 mph N/A   Scattered Clouds
4:37 PM 37.4 °F 28.5 °F 24.8 °F 60% 30.14 in 10.0 mi NNE 15.0 mph 23.0 mph N/A   Clear
4:57 PM 37.4 °F 30.8 °F 24.8 °F 60% 30.15 in 10.0 mi NNE 9.2 mph - N/A   Clear
5:17 PM 35.6 °F 25.9 °F 24.8 °F 65% 30.15 in 10.0 mi NNE 16.1 mph 19.6 mph N/A   Clear
5:37 PM 35.6 °F 28.0 °F 24.8 °F 65% 30.15 in 10.0 mi NNE 10.4 mph 18.4 mph N/A   Clear
5:57 PM 35.6 °F 27.1 °F 23.0 °F 60% 30.16 in 10.0 mi NE 12.7 mph 18.4 mph N/A   Clear
6:17 PM 33.8 °F 26.4 °F 23.0 °F 65% 30.16 in 10.0 mi NNE 9.2 mph - N/A   Clear
6:37 PM 33.8 °F 25.3 °F 23.0 °F 65% 30.17 in 10.0 mi NNE 11.5 mph - N/A   Clear
6:57 PM 32.0 °F 23.0 °F 23.0 °F 69% 30.18 in 10.0 mi NE 11.5 mph - N/A   Clear
7:17 PM 32.0 °F 24.2 °F 23.0 °F 69% 30.18 in 10.0 mi NE 9.2 mph - N/A   Clear
7:37 PM 32.0 °F 24.8 °F 23.0 °F 69% 30.19 in 10.0 mi NE 8.1 mph - N/A   Clear
7:57 PM 30.2 °F 24.3 °F 23.0 °F 75% 30.19 in 10.0 mi NNE 5.8 mph - N/A   Clear
8:17 PM 30.2 °F 22.6 °F 21.2 °F 69% 30.20 in 10.0 mi NE 8.1 mph - N/A   Clear
8:37 PM 28.4 °F 24.6 °F 21.2 °F 74% 30.20 in 10.0 mi NNE 3.5 mph - N/A   Clear
8:57 PM 28.4 °F - 21.2 °F 74% 30.20 in 10.0 mi Calm Calm - N/A   Clear
9:17 PM 28.4 °F - 21.2 °F 74% 30.20 in 10.0 mi Calm Calm - N/A   Clear
9:37 PM 28.4 °F - 21.2 °F 74% 30.21 in 10.0 mi Calm Calm - N/A   Clear
9:57 PM 28.4 °F - 21.2 °F 74% 30.22 in 10.0 mi Calm Calm - N/A   Clear
10:17 PM 28.4 °F - 21.2 °F 74% 30.22 in 10.0 mi Calm Calm - N/A   Clear
10:37 PM 26.6 °F - 21.2 °F 80% 30.22 in 10.0 mi Calm Calm - N/A   Clear
10:57 PM 26.6 °F - 21.2 °F 80% 30.22 in 10.0 mi Calm Calm - N/A   Clear
11:17 PM 26.6 °F - 23.0 °F 86% 30.22 in 10.0 mi Calm Calm - N/A   Clear
11:37 PM 28.4 °F - 23.0 °F 80% 30.22 in 10.0 mi Calm Calm - N/A   Clear
11:57 PM 24.8 °F - 21.2 °F 86% 30.22 in 10.0 mi Calm Calm - N/A   Clear